sat.trackr.live / text

‹ back to catalog

ONEWEB-0301

NORAD 49090 · 2021-075R

PAYLOAD ACTIVE UNKNOWN

§ Identity

Operator
Country
UK
Launch date
2021-08-21
Launch site
TYMSC
Launch vehicle
Mass (kg)
RCS (m²)

Purposes: comms

External: N2YO · Heavens-Above · Gunter

§ Orbital elements

Epoch: 2026-05-25T03:22:48.354816Z

Period
109.72 min
Inclination
87.8958°
Eccentricity
0.0002012
Mean motion
13.12442820 rev/d
Perigee alt
1,212.2 km
Apogee alt
1,215.3 km
Semi-major
7,591.9 km
B*
-8.3407e-4
RAAN
355.2379°
Arg perigee
78.3887°
Mean anomaly
281.7467°
Rev number
23,154

§ Raw data

ONEWEB-03011 49090U 21075R   26145.14083744 -.00000287  00000+0 -83407-3 0  99992 49090  87.8958 355.2379 0002012  78.3887 281.7467 13.12442820231546

JSON: /api/v1/satellites/49090 · /tle

For live sub-satellite position, see the globe view (requires WebGL).

§ Visibility from observer

Set your observer location to see the next 7 days of passes ≥ 10°. The values pass through the URL so the page stays shareable.

No JS? Fill the form by hand. The geolocation button needs JavaScript.